Valparaiso, IN

9:42 PM CDT on April 29, 2017 (GMT -0500)
Porter County Municipal

Weather History for KVPZ - May, 2014

Change the Weather History Date:

Wednesday, May 14, 2014

  Actual Average Record
Temperature  
Mean Temperature 48 °F 59 °F  
Max Temperature 52 °F 70 °F 89 °F (2007)
Min Temperature 43 °F 47 °F 38 °F (2000)
Degree Days  
Heating Degree Days 17 8  
Month to date heating degree days 113 128  
Since 1 July heating degree days 7080 6187  
Cooling Degree Days 0 1  
Month to date cooling degree days 26 10  
Year to date cooling degree days 26 15  
Moisture  
Dew Point 43 °F    
Average Humidity 85    
Maximum Humidity 97    
Minimum Humidity 66    
Precipitation  
Precipitation 0.38 in 0.12 in 1.31 in (2001)
Month to date precipitation 2.39 1.78  
Year to date precipitation 8.01 10.96  
Sea Level Pressure  
Sea Level Pressure 30.06 in    
Wind  
Wind Speed 8 mph (North)    
Max Wind Speed 16 mph    
Max Gust Speed 22 mph    
Visibility 9 miles    
Events Rain    
T = Trace of Precipitation, MM = Missing Value Source: NWS Daily Summary

Daily Weather History Graph

Daily Weather History Graph

Search for Another Location

Airport or City:

Trip Planner

Search our weather history database for the weather conditions in past years. The results will help you decide how hot, cold, wet, or windy it might be!

Date:

Astronomy

May. 14, 2014 Rise Set
Actual Time 5:30 AM CDT 7:59 PM CDT
Civil Twilight 4:58 AM CDT 8:30 PM CDT
Nautical Twilight 4:19 AM CDT 9:10 PM CDT
Astronomical Twilight 3:35 AM CDT 9:54 PM CDT
Moon 8:04 PM CDT (5/14) 5:29 AM CDT (5/14)
Length of Visible Light 15h 32m
Length of Day
14h 29m
Full, 100% of the Moon is Illuminated
May 14
Full
May 14
Full
May 21
Last Quarter
May 28
New
Jun 5
First Quarter

Hourly Weather History & Observations

Time (CDT) Temp. Windchill Dew Point Humidity Pressure Visibility Wind Dir Wind Speed Gust Speed Precip Events Conditions
12:53 AM 52.0 °F - 46.9 °F 83% 30.14 in 10.0 mi West 6.9 mph - N/A   Mostly Cloudy
1:53 AM 52.0 °F - 48.0 °F 86% 30.14 in 10.0 mi NW 3.5 mph - N/A   Mostly Cloudy
2:53 AM 52.0 °F - 46.9 °F 83% 30.15 in 10.0 mi NW 3.5 mph - N/A   Partly Cloudy
4:53 AM 51.1 °F - 45.0 °F 80% 30.15 in 10.0 mi North 9.2 mph - N/A   Mostly Cloudy
5:53 AM 50.0 °F - 42.1 °F 74% 30.17 in 10.0 mi North 6.9 mph - N/A   Clear
7:53 AM 50.0 °F - 39.9 °F 68% 30.18 in 10.0 mi North 6.9 mph - N/A   Clear
8:53 AM 51.1 °F - 39.9 °F 66% 30.18 in 10.0 mi North 9.2 mph - N/A   Clear
10:53 AM 50.0 °F - 39.9 °F 68% 30.16 in 10.0 mi North 8.1 mph - N/A   Partly Cloudy
11:53 AM 50.0 °F - 41.0 °F 71% 30.15 in 10.0 mi North 6.9 mph - N/A   Overcast
12:53 PM 48.0 °F - 42.1 °F 80% 30.15 in 9.0 mi North 9.2 mph - 0.02 in Rain Light Rain
1:53 PM 48.0 °F - 44.1 °F 86% 30.12 in 9.0 mi NNW 9.2 mph - 0.05 in Rain Light Rain
2:53 PM 48.0 °F - 45.0 °F 89% 30.11 in 10.0 mi North 8.1 mph - 0.02 in Rain Light Rain
4:53 PM 46.0 °F 41.4 °F 43.0 °F 89% 30.05 in 10.0 mi North 9.2 mph - 0.01 in Rain Light Rain
5:53 PM 46.0 °F 41.9 °F 43.0 °F 89% 30.08 in 3.0 mi North 8.1 mph - 0.01 in Rain Light Rain
6:53 PM 46.0 °F 41.4 °F 43.0 °F 89% 30.06 in 8.0 mi North 9.2 mph - 0.02 in Rain Light Rain
7:53 PM 44.1 °F 37.7 °F 42.1 °F 93% 30.04 in 9.0 mi North 12.7 mph 18.4 mph 0.07 in Rain Light Rain
8:53 PM 44.1 °F 37.7 °F 39.9 °F 85% 29.99 in 10.0 mi NNE 12.7 mph 21.9 mph 0.03 in Rain Light Rain
9:53 PM 43.0 °F 37.2 °F 41.0 °F 93% 29.97 in 7.0 mi North 10.4 mph - 0.05 in Rain Light Rain
10:33 PM 44.1 °F 38.6 °F 43.0 °F 96% 29.92 in 6.0 mi North 10.4 mph 20.7 mph 0.01 in Rain Light Rain
10:43 PM 45.0 °F 39.7 °F 44.1 °F 97% 29.90 in 9.0 mi North 10.4 mph 18.4 mph 0.01 in Rain Light Rain
10:53 PM 45.0 °F 40.1 °F 44.1 °F 97% 29.92 in 10.0 mi North 9.2 mph - 0.01 in Rain Light Rain
11:04 PM 45.0 °F 40.1 °F 44.1 °F 97% 29.90 in 9.0 mi North 9.2 mph - 0.00 in Rain Light Rain
11:29 PM 46.0 °F 41.0 °F 45.0 °F 96% 29.90 in 4.0 mi North 10.4 mph - 0.01 in Rain Light Rain
11:53 PM 46.0 °F 40.6 °F 45.0 °F 96% 29.91 in 4.0 mi NNW 11.5 mph 17.3 mph 0.02 in Rain Light Rain